Weather in Nagorny

Russia / Kamchatka Krai     53°07′23″N   158°30′44″E
temp.,
°C
wind,
m/s
gust,
m/s
humid.,
%
clouds,
%
prec.,
mm/h
press.,
hPa
HPBL,
m
28 february, sun
sun2800:00−9nw3480100 0.3 100843
03:00−10nw4588100 0.6 1006115
06:00−10nw6878100 1.4 1004154
09:00−10nw6972100 0.1 1003137
12:00−7nw587295 0.1 1001325
15:00−4wnw696847 0.0 999528
18:00−7wnw697545 0.0 997171
21:00−11wnw57760 0.0 99676
1 march, mon
mon100:00−13nw55781 0.0 99559
03:00−12wnw677724 0.0 994101
06:00−12wnw687721 0.0 994135
09:00−12wnw58780 0.0 995136
12:00−5w815696 0.0 9961017
15:00−4wnw14186514 0.0 9971226
18:00−6w1118687 0.0 998592
21:00−9w713740 0.0 1002201
2 march, tue
tue200:00−8w919700 0.0 1003420
03:00−9w716740 0.0 1006279
06:00−9w610730 0.0 1008132
09:00−11w56710 0.0 101380
12:00−6wnw1114660 0.0 10161150
15:00−6wnw11156568 0.1 10201550
18:00−8wnw597157 0.1 1023174
21:00−12nw337768 0.0 102729
3 march, wed
wed300:00−13nw338184 0.0 102834
03:00−12nnw2281100 0.0 102635
06:00−12nnw1195100 0.8 102263
09:00−11w4495100 3.4 1016140
12:00−8w3494100 7.3 1008280
15:00−6w2294100 7.8 1000219
18:00−2e4898100 22.7 991317
21:00+1sse101998100 11.8 981586
4 march, thu
thu400:00−1wsw14216998 14.2 9821157
03:00−8w16246933 0.0 990993
06:00−11w14227017 0.0 996894
09:00−12wnw1321691 0.0 1002996
12:00−10w16236618 0.0 10071977
15:00−8w16226635 0.0 10101731
18:00−8sw257418 0.0 1010103
21:00−9ssw367754 0.0 1009110